(158090) = 2000 WL47

Discovered at Socorro on 2000-11-21 by LINEAR.

Orbit

Orbit type: Main Belt

Note: WebGL enabled browser required.

epoch2024-03-31.0
epoch JD2460400.5
perihelion date2023-07-02.46203
perihelion JD2460127.96203
argument of perihelion (°)301.56519
ascending node (°)94.12640
inclination (°)9.52697
eccentricity0.1518984
perihelion distance (AU)2.3376466
Tisserand w.r.t. Jupiter3.3
ΔV w.r.t. Earth (km/sec)10.0
semimajor axis (AU)2.7563285
mean anomaly (°)58.69950
mean daily motion (°/day)0.21538100
aphelion distance (AU)3.175
period (years)4.58
P-vector [x]0.80044799
P-vector [y]0.59059943
P-vector [z]0.10234903
Q-vector [x]-0.57622103
Q-vector [y]0.71116373
Q-vector [z]0.40275983
absolute magnitude15.59
phase slope0.15
uncertainty0
referenceMPEC 2024-C115
observations used871
oppositions15
arc length (days)8478
first opposition used2000
last opposition used2024
residual rms (arc-secs)0.71
perturbers coarse indicatorM-v
perturbers precise indicator003Ek
first observation date used2000-11-01.0
last observation date used2024-01-18.0
computer nameMPCLINUX
JD of orbit computation2456552.267753
perihelion JD uncertainty (days)1.0087E-04
argument of perihelion uncertainty (°)4.0024E-05
ascending node uncertainty (°)3.4305E-05
inclination uncertainty (°)5.9491E-06
eccentricity uncertainty 6.1515E-08
perihelion distance uncertainty (AU)1.8208E-07
Minimum Orbit Intersection Distances (in AU)
for orbit epoch: 2460200.5, reference: E2024-CB5
Mercury2.01231
Venus1.61967
Earth1.36135
Mars0.88274
Jupiter2.25869
Saturn6.42974
Uranus15.4275
Neptune27.5

Observations

891 total observations over interval: 2000 11 01.34457 – 2024 01 18.369201
These data are available for download (format description).

Date (UT) J2000 RA J2000 Dec Magn Location Ref
2000 11 01.34457 05 01 14.85 +14 22 21.3 19.3   704 – Lincoln Laboratory ETS, New Mexico MPS 23944
2000 11 01.35839 05 01 14.42 +14 22 23.0 19.1   704 – Lincoln Laboratory ETS, New Mexico MPS 23944
2000 11 01.37250 05 01 13.95 +14 22 23.2 19.5   704 – Lincoln Laboratory ETS, New Mexico MPS 23944
2000 11 01.38614 05 01 13.55 +14 22 23.3 19.2   704 – Lincoln Laboratory ETS, New Mexico MPS 23944
2000 11 01.39988 05 01 13.18 +14 22 24.8 20.0   704 – Lincoln Laboratory ETS, New Mexico MPS 23944
2000 11 21.33129 04 46 46.39 +14 48 05.8 18.1   704 – Lincoln Laboratory ETS, New Mexico MPS 22884
2000 11 21.34687 04 46 45.45 +14 48 07.6 18.0   704 – Lincoln Laboratory ETS, New Mexico MPS 22884
2000 11 21.36303 04 46 44.52 +14 48 08.9 17.7   704 – Lincoln Laboratory ETS, New Mexico MPS 22884
2000 11 21.37803 04 46 43.68 +14 48 10.8 18.2   704 – Lincoln Laboratory ETS, New Mexico MPS 22884
2000 11 27.28764 04 41 00.35 +14 59 57.8 18.4   704 – Lincoln Laboratory ETS, New Mexico MPS 22884
2000 11 27.30213 04 40 59.38 +15 00 00.3 18.6   704 – Lincoln Laboratory ETS, New Mexico MPS 22884
2000 11 27.31662 04 40 58.53 +15 00 02.1 18.8   704 – Lincoln Laboratory ETS, New Mexico MPS 22884
2000 11 27.33113 04 40 57.63 +15 00 04.0 18.5   704 – Lincoln Laboratory ETS, New Mexico MPS 22884
2000 11 27.34562 04 40 56.72 +15 00 05.8 18.4   704 – Lincoln Laboratory ETS, New Mexico MPS 22884
2000 11 27.35032 04 40 56.43 +15 00 06.8 18.7   704 – Lincoln Laboratory ETS, New Mexico MPS 22884
2000 11 27.36792 04 40 55.39 +15 00 08.3 18.8   704 – Lincoln Laboratory ETS, New Mexico MPS 22884
2000 11 27.38858 04 40 54.08 +15 00 10.7 18.5   704 – Lincoln Laboratory ETS, New Mexico MPS 22884
2000 11 27.40894 04 40 52.90 +15 00 12.6 18.9   704 – Lincoln Laboratory ETS, New Mexico MPS 22884
2000 11 27.42669 04 40 51.80 +15 00 15.3 18.6   704 – Lincoln Laboratory ETS, New Mexico MPS 22884
2000 11 30.28780 04 37 59.97 +15 06 45.4 18.2 R 699 – Lowell Observatory-LONEOS MPS 22884
2000 11 30.30492 04 37 58.93 +15 06 48.5   699 – Lowell Observatory-LONEOS MPS 22884
2000 11 30.32208 04 37 57.85 +15 06 49.4   699 – Lowell Observatory-LONEOS MPS 22884
2000 11 30.33932 04 37 56.77 +15 06 52.7   699 – Lowell Observatory-LONEOS MPS 22884
2000 12 29.17428 04 13 26.53 +16 40 22.2 18.3 R 699 – Lowell Observatory-LONEOS MPS 23944
2000 12 29.19847 04 13 25.70 +16 40 27.4   699 – Lowell Observatory-LONEOS MPS 23944
2000 12 29.22266 04 13 24.82 +16 40 32.5   699 – Lowell Observatory-LONEOS MPS 23944
2000 12 29.24689 04 13 23.99 +16 40 39.5   699 – Lowell Observatory-LONEOS MPS 23944
2000 12 30.24925 04 12 52.23 +16 44 47.3 19.8   704 – Lincoln Laboratory ETS, New Mexico MPS 23944
2000 12 30.26426 04 12 51.67 +16 44 50.9 19.7   704 – Lincoln Laboratory ETS, New Mexico MPS 23944
2000 12 30.27916 04 12 51.27 +16 44 54.8 19.6   704 – Lincoln Laboratory ETS, New Mexico MPS 23944
2001 01 03.15253 04 11 05.89 +17 01 26.3 19.2   704 – Lincoln Laboratory ETS, New Mexico MPS 23944
2001 01 03.16728 04 11 05.51 +17 01 29.7 19.4   704 – Lincoln Laboratory ETS, New Mexico MPS 23944
2001 01 03.16742 04 11 05.48 +17 01 31.7 19.5   704 – Lincoln Laboratory ETS, New Mexico MPS 23944
2001 01 03.18207 04 11 05.13 +17 01 35.2 19.6   704 – Lincoln Laboratory ETS, New Mexico MPS 23944
2001 01 03.18220 04 11 05.11 +17 01 33.4 19.7   704 – Lincoln Laboratory ETS, New Mexico MPS 23944
2001 01 03.19742 04 11 04.67 +17 01 37.5 19.2   704 – Lincoln Laboratory ETS, New Mexico MPS 23944
2001 01 03.19755 04 11 04.69 +17 01 37.2 19.3   704 – Lincoln Laboratory ETS, New Mexico MPS 23944
2001 01 03.21212 04 11 04.29 +17 01 41.9 19.3   704 – Lincoln Laboratory ETS, New Mexico MPS 23944
2001 01 03.21226 04 11 04.32 +17 01 40.8 19.2   704 – Lincoln Laboratory ETS, New Mexico MPS 23944
2004 08 08.29914 23 41 11.68 -16 25 45.6 18.8   704 – Lincoln Laboratory ETS, New Mexico MPS 112118
2004 08 08.31792 23 41 11.40 -16 25 55.9 19.5   704 – Lincoln Laboratory ETS, New Mexico MPS 112118
2004 08 08.32732 23 41 11.20 -16 26 00.1 19.9   704 – Lincoln Laboratory ETS, New Mexico MPS 112118
2004 08 08.44933 23 41 09.17 -16 26 54.9 18.8   644 – Palomar Mountain/NEAT MPS 112118
2004 08 08.47725 23 41 08.67 -16 27 07.1 18.6   644 – Palomar Mountain/NEAT MPS 112118
2004 08 08.49941 23 41 08.28 -16 27 17.3 18.8   644 – Palomar Mountain/NEAT MPS 112118
2004 08 23.32517 23 34 33.75 -18 25 42.9 18.3 R 699 – Lowell Observatory-LONEOS MPS 112118
2004 08 23.33978 23 34 33.20 -18 25 49.1   699 – Lowell Observatory-LONEOS MPS 112118
2004 08 23.35438 23 34 32.66 -18 25 55.5   699 – Lowell Observatory-LONEOS MPS 112118
2004 08 23.36900 23 34 32.11 -18 26 03.4   699 – Lowell Observatory-LONEOS MPS 112118
2004 09 07.28617 23 23 42.28 -20 19 17.7 19.6   704 – Lincoln Laboratory ETS, New Mexico MPS 112599
2004 09 07.29718 23 23 41.72 -20 19 21.7 19.5   704 – Lincoln Laboratory ETS, New Mexico MPS 112599
2004 09 07.30817 23 23 41.18 -20 19 26.5 19.7   704 – Lincoln Laboratory ETS, New Mexico MPS 112599
2004 09 07.31918 23 23 40.60 -20 19 30.5 19.3   704 – Lincoln Laboratory ETS, New Mexico MPS 112599
2004 09 07.33025 23 23 40.04 -20 19 35.5 19.7   704 – Lincoln Laboratory ETS, New Mexico MPS 112599
2004 09 16.65220 23 16 02.60 -21 13 45.3 18.0 R E12 – Siding Spring Survey MPS 112670
2004 09 16.66044 23 16 02.18 -21 13 48.3 18.0 R E12 – Siding Spring Survey MPS 112670
2004 09 16.66899 23 16 01.70 -21 13 51.1 18.8 R E12 – Siding Spring Survey MPS 112670
2004 09 16.67762 23 16 01.27 -21 13 51.8 19.3 R E12 – Siding Spring Survey MPS 112670
2004 09 21.22692 23 12 25.14 -21 33 30.1 19.2   704 – Lincoln Laboratory ETS, New Mexico MPS 114202
2004 09 21.23888 23 12 24.58 -21 33 33.8 19.6   704 – Lincoln Laboratory ETS, New Mexico MPS 114202
2004 09 21.25083 23 12 23.98 -21 33 35.4 19.7   704 – Lincoln Laboratory ETS, New Mexico MPS 114202
2004 09 21.26311 23 12 23.39 -21 33 38.5 19.3   704 – Lincoln Laboratory ETS, New Mexico MPS 114202
2004 09 21.27508 23 12 22.82 -21 33 40.5 19.4   704 – Lincoln Laboratory ETS, New Mexico MPS 114202
2004 10 06.19856 23 02 35.64 -22 00 20.0 19.1   704 – Lincoln Laboratory ETS, New Mexico MPS 115641
2004 10 06.20943 23 02 35.32 -22 00 19.8 19.4   704 – Lincoln Laboratory ETS, New Mexico MPS 115641
2004 10 06.22031 23 02 34.99 -22 00 19.4 19.5   704 – Lincoln Laboratory ETS, New Mexico MPS 115641
2004 10 06.23120 23 02 34.63 -22 00 17.2 19.4   704 – Lincoln Laboratory ETS, New Mexico MPS 115641
2004 10 13.14268 22 59 39.03 -21 53 05.5 19.0   704 – Lincoln Laboratory ETS, New Mexico MPS 116473
2004 10 13.16444 22 59 38.61 -21 53 02.0 20.0   704 – Lincoln Laboratory ETS, New Mexico MPS 116473
2004 10 13.18620 22 59 38.10 -21 53 00.0 19.6   704 – Lincoln Laboratory ETS, New Mexico MPS 116473
2005 10 01.47937 07 57 03.53 +20 47 48.7 20.8 V 691 – Steward Observatory, Kitt Peak-Spacewatch MPS 143436
2005 10 01.49177 07 57 04.57 +20 47 47.6 21.0 V 691 – Steward Observatory, Kitt Peak-Spacewatch MPS 143436
2005 10 01.50433 07 57 05.60 +20 47 46.5 20.6 V 691 – Steward Observatory, Kitt Peak-Spacewatch MPS 143436
2005 10 10.47215 08 09 12.12 +20 35 54.0 21.0 V 691 – Steward Observatory, Kitt Peak-Spacewatch MPS 143436
2005 10 10.48464 08 09 13.09 +20 35 52.6 20.7 V 691 – Steward Observatory, Kitt Peak-Spacewatch MPS 143436
2005 10 10.50054 08 09 14.29 +20 35 51.5 20.7 V 691 – Steward Observatory, Kitt Peak-Spacewatch MPS 143436
2005 10 13.48687 08 13 00.97 +20 32 23.7 21.0 V 691 – Steward Observatory, Kitt Peak-Spacewatch MPS 143436
2005 10 13.49937 08 13 01.91 +20 32 22.9 20.7 V 691 – Steward Observatory, Kitt Peak-Spacewatch MPS 143436
2005 10 13.51188 08 13 02.82 +20 32 22.2 20.6 V 691 – Steward Observatory, Kitt Peak-Spacewatch MPS 143436
2005 11 06.46314 08 37 55.95 +20 23 00.4 20.4 V G96 – Mt. Lemmon Survey MPS 149201
2005 11 06.46981 08 37 56.31 +20 23 00.6 20.1 V G96 – Mt. Lemmon Survey MPS 149201
2005 11 06.47651 08 37 56.60 +20 23 00.9 20.6 V G96 – Mt. Lemmon Survey MPS 149201
2005 11 06.48323 08 37 56.92 +20 23 00.9 20.3 V G96 – Mt. Lemmon Survey MPS 149201
2005 12 25.45986 08 46 36.04 +23 20 57.6 19.7 V 691 – Steward Observatory, Kitt Peak-Spacewatch MPS 156387
